This demonstration page uses our WeatherBlox Daily Observations layout. Learn more.

Left ArrowRight Arrow

44.8408, -93.29828

Hourly Observations for September 4, 2018

Temp ( °F °C ) Dew Point ( °F °C ) Humidity (%) Winds ( mph kmh ) Pressure ( in mb ) Visibility ( mi km ) Precip ( " mm )
12:25 am 00:25 Cloudy 70 21.1 70 21.1 100 100 SE 7 11 30.03 1017 10 16 0.00 0.00
12:42 am 00:42 Cloudy 71 21.7 70 21.1 96 96 SE 7 11 30.03 1017 10 16 0.00 0.00
12:53 am 00:53 Cloudy 70 21.1 70 21.1 100 100 SE 7 11 30.04 1017 10 16 0.00 0.00
1:53 am 01:53 Cloudy 70 21.1 70 21.1 100 100 SSE 7 11 30.04 1017 9 14 0.00 0.00
2:53 am 02:53 Cloudy 70 21.1 70 21.1 100 100 SSE 6 9 30.04 1017 10 16 0.00 0.00
3:53 am 03:53 Cloudy 71 21.7 70 21.1 96 96 S 5 7 30.04 1017 10 16 0.00 0.00
4:53 am 04:53 Mostly Cloudy with Light Rain 71 21.7 70 21.1 96 96 S 3 6 30.04 1017 10 16 0.00 0.03
5:00 am 05:00 Cloudy with Light Rain 71 21.7 70 21.1 96 96 S 3 6 30.03 1017 9 14 0.00 0.03
5:53 am 05:53 Cloudy with Light Rain 70 21.1 70 21.1 100 100 VRB 3 6 30.03 1017 8 13 0.00 0.03
6:51 am 06:51 Cloudy 70 21 70 21 100 100 SE 3 6 30.00 1016 8 13 0.01 0.25
6:53 am 06:53 Cloudy 70 21.1 70 21.1 100 100 SSE 5 7 30.03 1017 7 11 0.01 0.25
7:53 am 07:53 Cloudy 71 21.7 70 21.1 96 96 S 3 6 30.04 1017 9 14 0.00 0.00
8:19 am 08:19 Cloudy 70 21.1 70 21.1 100 100 SE 3 6 30.03 1017 10 16 0.00 0.00
8:53 am 08:53 Cloudy with Light Rain 71 21.7 71 21.7 100 100 Calm 30.03 1017 8 13 0.00 0.03
9:17 am 09:17 Cloudy with Light Rain 71 21.7 71 21.7 100 100 SE 6 9 30.03 1017 8 13 0.00 0.03
9:34 am 09:34 Cloudy with Light Rain 71 21.7 71 21.7 100 100 SSE 9 15 30.03 1017 7 11 0.01 0.25
9:53 am 09:53 Cloudy with Light Rain 71 21.7 71 21.7 100 100 SSE 8 13 30.04 1017 7 11 0.02 0.51
10:04 am 10:04 Cloudy with Heavy Rain 71 21.7 71 21.7 100 100 S 8 13 30.03 1017 3 4 0.05 1.27
10:10 am 10:10 Cloudy with Rain 71 21.7 71 21.7 100 100 S 6 9 30.03 1017 3 5 0.13 3.30
10:53 am 10:53 Cloudy 73 22.8 72 22.2 96 96 SE 5 7 30.04 1017 10 16 0.14 3.56
11:15 am 11:15 Cloudy 74 23.3 72 22.2 94 94 SSE 6 9 30.00 1016 10 16 0.00 0.00
11:53 am 11:53 Cloudy with Light Rain 75 23.9 73 22.8 94 94 S 7 11 30.05 1018 10 16 0.00 0.03
12:08 pm 12:08 Cloudy with Light Rain 74 23.3 73 22.8 97 97 S 7 11 30.00 1016 9 14 0.00 0.03
12:39 pm 12:39 Cloudy with Light Rain 75 23.9 73 22.8 94 94 S 7 11 30.00 1016 10 16 0.01 0.25
12:53 pm 12:53 Cloudy 75 23.9 73 22.8 94 94 S 7 11 30.04 1017 10 16 0.01 0.25
1:00 pm 13:00 Cloudy 75 23.9 73 22.8 94 94 S 7 11 30.00 1016 10 16 0.00 0.00
1:51 pm 13:51 Cloudy with Nearby Thunderstorms 75 24 73 23 94 94 W 5 7 29.97 1015 9 14 0.01 0.25
1:53 pm 13:53 Cloudy with Nearby Thunderstorms 75 23.9 73 22.8 94 94 WSW 5 7 30.03 1017 4 6 0.01 0.25
2:03 pm 14:03 Cloudy with Rain 74 23.3 73 22.8 97 97 undefined N/A 29.97 1015 4 6 0.03 0.76
2:07 pm 14:07 Cloudy with Light Rain 74 23.3 73 22.8 97 97 WSW 5 7 29.97 1015 7 11 0.05 1.27
2:16 pm 14:16 Cloudy with Light Rain 74 23.3 73 22.8 97 97 WSW 8 13 29.97 1015 9 14 0.05 1.27
2:24 pm 14:24 Cloudy with Light Rain 74 23.3 73 22.8 97 97 SW 9 15 29.97 1015 9 14 0.05 1.27
2:39 pm 14:39 Cloudy with Light Rain 73 22.8 73 22.8 100 100 WSW 5 7 30.00 1016 6 10 0.07 1.78
2:53 pm 14:53 Cloudy with Light Rain 73 22.8 72 22.2 96 96 SW 7 11 30.02 1017 8 13 0.09 2.29
3:53 pm 15:53 Cloudy with Light Rain 72 22.2 70 21.1 94 94 WSW 6 9 30.01 1016 10 16 0.06 1.52
4:53 pm 16:53 Cloudy with Rain 71 21.7 69 20.6 94 94 S 9 15 30.01 1016 5 8 0.08 2.03
5:53 pm 17:53 Cloudy with Rain 70 21.1 69 20.6 97 97 Calm 29.99 1016 5 8 0.23 5.84
6:43 pm 18:43 Cloudy with Light Rain 70 21.1 70 21.1 100 100 NNE 6 9 29.94 1014 5 8 0.08 2.03
6:53 pm 18:53 Cloudy with Light Rain 70 21.1 70 21.1 100 100 E 6 9 29.97 1015 4 6 0.10 2.54
7:31 pm 19:31 Cloudy with Rain 69 20.6 69 20.6 100 100 SSE 7 11 29.97 1015 4 6 0.07 1.78
7:39 pm 19:39 Cloudy with Rain 69 20.6 69 20.6 100 100 E 9 15 29.94 1014 3 4 0.10 2.54
7:44 pm 19:44 Cloudy with Rain 69 20.6 69 20.6 100 100 ENE 9 15 29.94 1014 3 5 0.12 3.05
7:53 pm 19:53 Cloudy with Rain 69 20.6 69 20.6 100 100 E 6 9 29.97 1015 4 6 0.15 3.81
8:53 pm 20:53 Cloudy with Rain 70 21.1 70 21.1 100 100 E 8 13 29.97 1015 6 10 0.19 4.83
9:53 pm 21:53 Cloudy with Light Rain 69 20.6 68 20 96 96 ENE 10 17 29.98 1015 8 13 0.08 2.03
10:53 pm 22:53 Cloudy 68 20 66 18.9 93 93 NE 3 6 29.98 1015 10 16 0.01 0.25
11:53 pm 23:53 Cloudy 68 20 66 18.9 93 93 N 3 6 29.99 1016 10 16 0.00 0.00

Powered by AerisWeather